Stations météo

réclame
Mon MeteoGroup
Nikkaluokta, Suède (2036): Température de l'air & dewpoint: 18.10.2017 09:00:00 - 24.10.2017 09:00:00 (CEST)Nikkaluokta, Suède (2036): Vitesse du vent & gusts: 18.10.2017 09:00:00 - 24.10.2017 09:00:00 (CEST)Nikkaluokta, Suède (2036): Direction du vent: 18.10.2017 09:00:00 - 24.10.2017 09:00:00 (CEST)Nikkaluokta, Suède (2036): reduced air pressure: 18.10.2017 09:00:00 - 24.10.2017 09:00:00 (CEST)Nikkaluokta, Suède (2036): visibility: 18.10.2017 09:00:00 - 24.10.2017 09:00:00 (CEST)Nikkaluokta, Suède (2036): Quantités de précipitations: 18.10.2017 09:00:00 - 24.10.2017 09:00:00 (CEST)
Date & Time tt [°C] td [°C] ff [km/h] ff [knt] fx [km/h] fx [knt] dd ppp [hPa] vv [km] rr [mm]
24.10.2017 09:00:00 -15,7 -17,5 4 2 10 6 WNW 1027,4 50 0,0
24.10.2017 08:00:00 -16,1 -17,5 5 3 11 6 W 1027,6 40 0,0
24.10.2017 07:00:00 -17,5 -19,7 3 2 10 5 WSW 1027,9 50 0,0
24.10.2017 06:00:00 -15,4 -16,8 6 4 11 6 WNW 1027,8 47 0,0
24.10.2017 05:00:00 -17,6 -19,6 5 3 9 5 WSW 1028,5 50 0,0
24.10.2017 04:00:00 -15,1 -16,8 5 3 10 5 WNW 1028,5 50 0,0
24.10.2017 03:00:00 -14,7 -16,1 9 5 12 6 W 1028,8 50 0,0
24.10.2017 02:00:00 -16,5 -18,3 5 3 10 6 W 1029,4 50 0,0
24.10.2017 01:00:00 -15,2 -17,0 3 2 13 7 W 1029,2 50 0,0
24.10.2017 00:00:00 -15,7 -17,5 6 3 11 6 WNW 1029,6 50 0,0
23.10.2017 23:00:00 -15,7 -17,5 6 3 9 5 WNW 1029,9 50 0,0
23.10.2017 22:00:00 -14,7 -16,1 5 3 10 5 WNW 1029,7 50 0,0
23.10.2017 21:00:00 -12,6 -13,9 7 4 12 6 W 1029,5 50 0,0
23.10.2017 20:00:00 -12,5 -13,5 8 4 13 7 W 1029,7 50 0,0
23.10.2017 19:00:00 -14,0 -15,6 5 3 8 5 WNW 1030,0 50 0,0
23.10.2017 18:00:00 -12,9 -14,3 4 2 9 5 W 1029,5 50 0,0
23.10.2017 17:00:00 -11,0 -12,9 7 4 12 7 W 1029,2 50 0,0
23.10.2017 16:00:00 -7,7 -10,2 8 4 12 6 NW 1028,8 50 0,0
23.10.2017 15:00:00 -5,6 -10,8 5 3 8 5 SSW 1028,4 50 0,0
23.10.2017 14:00:00 -4,4 -9,6 4 2 6 3 W 1028,6 50 0,0
23.10.2017 13:00:00 -3,9 -10,1 3 2 6 3 SSW 1028,8 50 0,0
23.10.2017 12:00:00 -5,3 -8,7 4 2 6 4 WSW 1029,1 50 0,0
23.10.2017 11:00:00 -9,0 -10,6 4 2 10 5 W 1029,7 50 0,0
23.10.2017 10:00:00 -10,0 -11,2 4 2 11 6 NW 1029,9 50 0,0
23.10.2017 09:00:00 -12,8 -14,1 5 3 9 5 W 1030,3 50 0,0
23.10.2017 08:00:00 -11,7 -13,0 4 2 13 7 WSW 1029,8 50 0,0
23.10.2017 07:00:00 -10,4 -11,7 5 3 11 6 W 1029,3 50 0,0
23.10.2017 06:00:00 -7,1 -9,2 5 3 16 9 S 1028,7 50 0,0
23.10.2017 05:00:00 -5,0 -7,9 6 4 23 13 WSW 1028,4 50 0,0
23.10.2017 04:00:00 -2,8 -6,6 6 4 22 12 S 1028,2 50 0,0
23.10.2017 03:00:00 -2,2 -6,2 11 6 20 11 S 1028,1 50 0,0
23.10.2017 02:00:00 -2,0 -5,7 9 5 19 10 SSW 1028,3 50 0,0
23.10.2017 01:00:00 -1,9 -5,2 5 3 14 8 SSE 1027,8 50 0,0
23.10.2017 00:00:00 -2,0 -4,5 2 1 16 9 N 1027,5 50 0,0
22.10.2017 23:00:00 -2,0 -4,2 9 5 24 13 W 1027,2 50 0,0
22.10.2017 22:00:00 -1,8 -4,0 11 6 26 14 E 1026,9 50 0,0
22.10.2017 21:00:00 -3,6 -4,1 5 3 12 6 WSW 1026,9 5 0,1
22.10.2017 20:00:00 -3,1 -3,6 6 4 14 8 WSW 1026,6 4,8 0,0
22.10.2017 19:00:00 -3,2 -3,6 5 3 8 5 W 1026,2 7 0,0
22.10.2017 18:00:00 -4,0 -5,0 4 2 7 4 S 1025,8 2,4 0,0
22.10.2017 17:00:00 -4,4 -7,8 1 1 12 6 SSE 1025,2 50 0,0
22.10.2017 16:00:00 -4,3 -8,6 7 4 14 7 WSW 1024,8 50 0,0
22.10.2017 15:00:00 -3,5 -8,0 5 3 9 5 S 1024,5 50 0,0
22.10.2017 14:00:00 -3,6 -9,0 3 2 8 4 WSW 1024,4 50 0,0
22.10.2017 13:00:00 -4,1 -8,6 2 1 13 7 NW 1024,0 50 0,0
22.10.2017 12:00:00 -5,1 -8,0 2 1 11 6 S 1024,3 49 0,0
22.10.2017 11:00:00 -7,6 -9,5 7 4 11 6 W 1024,4 50 0,0
22.10.2017 10:00:00 -9,9 -11,4 8 4 11 6 W 1024,7 50 0,0
22.10.2017 09:00:00 -11,5 -12,7 7 4 9 5 W 1024,1 50 0,0
22.10.2017 08:00:00 -12,2 -13,5 4 2 10 5 W 1023,7 50 0,0
22.10.2017 07:00:00 -11,5 -12,8 6 3 15 8 WNW 1023,1 50 0,0
22.10.2017 06:00:00 -13,6 -15,2 8 4 10 5 SW 1023,5 50 0,0
22.10.2017 05:00:00 -13,8 -15,4 7 4 10 5 W 1023,5 50 0,0
22.10.2017 04:00:00 -13,2 -14,8 6 3 13 7 WNW 1023,6 50 0,0
22.10.2017 03:00:00 -11,0 -12,3 9 5 15 8 WNW 1023,5 50 0,0
22.10.2017 02:00:00 -12,7 -14,3 3 2 11 6 W 1023,6 50 0,0
22.10.2017 01:00:00 -12,6 -13,9 7 4 11 6 W 1023,8 50 0,0
22.10.2017 00:00:00 -11,5 -12,9 4 2 11 6 W 1023,8 50 0,0
21.10.2017 23:00:00 -10,4 -12,0 8 5 13 7 W 1023,9 50 0,0
21.10.2017 22:00:00 -11,0 -12,3 9 5 11 6 W 1024,2 50 0,0
21.10.2017 21:00:00 -10,4 -11,6 7 4 17 9 WNW 1023,9 50 0,0
21.10.2017 20:00:00 -11,4 -12,7 6 3 10 6 W 1024,1 50 0,0
21.10.2017 19:00:00 -10,4 -12,0 6 3 11 6 W 1024,0 50 0,0
21.10.2017 18:00:00 -9,1 -10,4 8 4 16 8 W 1023,5 50 0,0
21.10.2017 17:00:00 -8,7 -11,5 5 3 10 5 W 1023,6 50 0,0
21.10.2017 16:00:00 -6,4 -10,4 6 3 8 4 WNW 1023,3 50 0,0
21.10.2017 15:00:00 -3,4 -7,9 4 2 10 5 WNW 1023,0 50 0,0
21.10.2017 14:00:00 -2,7 -6,0 6 3 9 5 NW 1023,1 50 0,0
21.10.2017 13:00:00 -3,3 -8,9 2 1 6 3 WNW 1023,4 50 0,0
21.10.2017 12:00:00 -3,9 -7,3 1 1 5 3 SSE 1024,0 50 0,0
21.10.2017 11:00:00 -6,9 -9,0 3 2 8 5 WNW 1024,4 45 0,0
21.10.2017 10:00:00 -9,1 -10,6 3 2 11 6 WNW 1024,8 50 0,0
21.10.2017 09:00:00 -13,5 -15,2 5 3 11 6 W 1025,2 50 0,0
21.10.2017 08:00:00 -12,9 -14,6 8 4 14 7 WNW 1025,2 50 0,0
21.10.2017 07:00:00 -12,4 -14,3 5 3 13 7 NW 1025,4 50 0,0
21.10.2017 06:00:00 -14,0 -15,6 4 2 10 6 W 1025,8 50 0,0
21.10.2017 05:00:00 -14,3 -16,0 3 2 10 6 WNW 1025,8 50 0,0
21.10.2017 04:00:00 -14,2 -16,0 4 2 9 5 W 1026,1 50 0,0
21.10.2017 03:00:00 -11,3 -12,3 7 4 13 7 NNW 1025,9 50 0,0
21.10.2017 02:00:00 -13,7 -15,4 3 2 12 7 WSW 1026,3 50 0,0
21.10.2017 01:00:00 -12,6 -13,9 8 4 12 6 NW 1026,3 50 0,0
21.10.2017 00:00:00 -13,1 -14,5 7 4 11 6 WSW 1026,6 50 0,0
20.10.2017 23:00:00 -11,9 -13,8 3 2 13 7 NW 1026,5 50 0,0
20.10.2017 22:00:00 -11,7 -12,7 7 4 11 6 WNW 1026,6 50 0,0
20.10.2017 21:00:00 -10,3 -11,1 9 5 12 6 WNW 1026,8 50 0,0
20.10.2017 20:00:00 -11,6 -12,8 9 5 10 6 W 1027,1 26 0,0
20.10.2017 19:00:00 -10,0 -11,1 8 4 13 7 WNW 1026,9 50 0,0
20.10.2017 18:00:00 -8,2 -9,1 8 4 11 6 NW 1026,7 50 0,0
20.10.2017 17:00:00 -6,5 -8,6 9 5 14 7 WNW 1026,4 50 0,0
20.10.2017 16:00:00 -5,1 -7,4 7 4 16 8 W 1026,6 50 0,0
20.10.2017 15:00:00 -2,6 -6,2 8 5 12 7 W 1026,2 50 0,0
20.10.2017 14:00:00 -2,2 -5,6 9 5 13 7 W 1026,3 50 0,0
20.10.2017 13:00:00 -1,6 -5,3 8 5 11 6 W 1026,4 50 0,0
20.10.2017 12:00:00 -1,9 -5,1 7 4 13 7 WSW 1026,4 50 0,0
20.10.2017 11:00:00 -2,7 -5,3 6 4 13 7 W 1026,4 50 0,0
20.10.2017 10:00:00 -3,2 -6,0 5 3 13 7 W 1025,9 50 0,0
20.10.2017 09:00:00 -3,1 -5,0 9 5 11 6 WSW 1025,5 50 0,0
20.10.2017 08:00:00 -2,9 -4,6 8 4 13 7 W 1025,1 50 0,0
20.10.2017 07:00:00 -3,1 -4,7 9 5 13 7 WSW 1024,6 50 0,0
20.10.2017 06:00:00 -2,2 -3,6 10 5 14 8 WSW 1024,1 50 0,0
20.10.2017 05:00:00 -2,0 -2,7 2 1 17 9 W 1023,7 50 0,0
20.10.2017 04:00:00 -2,0 -2,7 10 6 18 10 WSW 1023,5 39 0,0
20.10.2017 03:00:00 -0,8 -1,2 5 3 11 6 SE 1022,8 50 0,0
20.10.2017 02:00:00 -1,3 -1,6 5 3 7 4 SW 1022,3 50 0,0
20.10.2017 01:00:00 -1,3 -1,4 3 2 10 5 SSW 1021,7 50 0,0
20.10.2017 00:00:00 - - - - - - - - - -
19.10.2017 23:00:00 0,2 0,1 5 3 13 7 NW 1020,9 6 0,8
19.10.2017 22:00:00 0,2 -0,1 10 5 68 37 W 1020,4 1,3 0,3
19.10.2017 21:00:00 1,1 -0,5 10 6 22 12 NW 1019,6 50 0,0
19.10.2017 20:00:00 0,9 -0,3 8 4 16 8 WNW 1019,1 50 -
19.10.2017 19:00:00 0,9 -1,2 6 3 21 11 NW 1018,6 50 -
19.10.2017 18:00:00 1,6 -2,2 4 2 14 8 W 1018,1 50 -
19.10.2017 17:00:00 2,6 -2,3 7 4 18 10 W 1017,6 50 -
19.10.2017 16:00:00 3,1 -2,4 2 1 20 11 W 1017,1 50 -
19.10.2017 15:00:00 3,2 -2,1 15 8 23 12 NNW 1016,7 50 -
19.10.2017 14:00:00 3,8 -3,0 13 7 32 18 WNW 1016,2 50 -
19.10.2017 13:00:00 3,8 -3,0 18 10 40 21 WNW 1015,9 50 -
19.10.2017 12:00:00 2,9 -2,6 20 11 42 23 W 1015,8 50 -
19.10.2017 11:00:00 2,3 -2,8 3 2 24 13 WNW 1015,9 50 -
19.10.2017 10:00:00 1,5 -2,2 - - - - - 1015,6 50 -
19.10.2017 09:00:00 - - - - - - - - - -
19.10.2017 08:00:00 2,0 -5,9 14 7 32 17 W 1014,4 50 0,0
19.10.2017 07:00:00 0,7 -4,3 13 7 31 17 WSW 1014,3 50 0,0
19.10.2017 06:00:00 0,8 -4,0 7 4 23 13 WNW 1014,0 50 0,0
19.10.2017 05:00:00 0,6 -3,9 10 5 20 11 W 1013,7 50 0,0
19.10.2017 04:00:00 0,8 -3,7 14 8 27 14 WSW 1013,3 50 0,0
19.10.2017 03:00:00 2,6 -2,1 14 7 26 14 WNW 1012,6 50 0,0
19.10.2017 02:00:00 2,3 -2,0 16 8 24 13 WNW 1012,1 50 0,0
19.10.2017 01:00:00 2,0 -2,1 16 9 24 13 NW 1011,7 50 0,0
19.10.2017 00:00:00 1,4 -2,5 13 7 22 12 WNW 1011,1 50 0,0
18.10.2017 23:00:00 1,9 -3,0 10 5 35 19 WNW 1010,7 50 0,0
18.10.2017 22:00:00 1,5 -2,4 9 5 24 13 W 1010,2 50 0,0
18.10.2017 21:00:00 1,4 -1,7 16 8 26 14 W 1009,5 50 0,0
18.10.2017 20:00:00 1,8 -1,6 14 7 26 14 WNW 1008,8 50 0,0
18.10.2017 19:00:00 1,6 -1,8 16 9 26 14 NW 1008,1 50 0,0
18.10.2017 18:00:00 1,9 -2,2 13 7 20 11 NNW 1007,6 50 0,0
18.10.2017 17:00:00 1,7 -2,3 10 5 18 10 WNW 1006,8 50 0,0
18.10.2017 16:00:00 2,8 -1,9 10 5 16 9 W 1005,8 50 0,0
18.10.2017 15:00:00 3,6 -1,0 6 3 21 11 SSW 1004,8 50 0,0
18.10.2017 14:00:00 2,1 -0,5 3 2 8 5 E 1004,1 50 0,0
18.10.2017 13:00:00 2,0 -0,6 3 2 8 4 ESE 1003,3 46 0,0
18.10.2017 12:00:00 1,2 -0,3 3 2 6 3 E 1002,9 50 0,0
18.10.2017 11:00:00 0,2 -0,5 2 1 9 5 E 1002,5 50 0,0
18.10.2017 10:00:00 -1,5 -1,9 3 2 7 4 NE 1002,1 50 0,0
18.10.2017 09:00:00 -2,3 -2,7 4 2 7 4 SSW 1001,5 50 0,0

tt = Température de l'air
td = dewpoint
ff = Vitesse du vent
fx = gusts
dd = Direction du vent
ppp = reduced air pressure
vv = visibility
rr = Quantités de précipitations

stations d'obs. à proximité